Weather History for Eastsound, WA

Change the Weather History Date:

Monday, September 23, 2013

  Actual Average (KBLI) Record (KBLI)
Temperature  
Mean Temperature 55 °F 56 °F  
Max Temperature 60 °F 65 °F 79 °F (1957)
Min Temperature 50 °F 46 °F 33 °F (2000)
Degree Days  
Heating Degree Days 10 9  
Month to date heating degree days 156  
Cooling Degree Days 0 0  
Month to date cooling degree days 0  
Year to date cooling degree days 40  
Growing Degree Days 5 (Base 50)    
Moisture  
Dew Point 50 °F    
Average Humidity 84    
Maximum Humidity 94    
Minimum Humidity 63    
Precipitation  
Precipitation 0.01 in 0.06 in 0.97 in (1986)
Month to date precipitation 1.29  
Year to date precipitation 21.64  
Sea Level Pressure  
Sea Level Pressure 29.83 in    
Wind  
Wind Speed 7 mph (South)    
Max Wind Speed 13 mph    
Max Gust Speed -    
Visibility 10 miles    
Events Rain    
T = Trace of Precipitation, MM = Missing Value Source: NWS Daily Summary

Daily Weather History Graph

Daily Weather History Graph

Search for Another Location

Airport:

Trip Planner

Search our weather history database for the weather conditions in past years. The results will help you decide how hot, cold, wet, or windy it might be!

Date:

Astronomy

Sep. 23, 2013 Rise Set
Actual Time 7:00 AM PDT 7:06 PM PDT
Civil Twilight 6:28 AM PDT 7:37 PM PDT
Nautical Twilight 5:51 AM PDT 8:14 PM PDT
Astronomical Twilight 5:13 AM PDT 8:52 PM PDT
Moon 9:18 PM PDT (9/23) 11:48 AM PDT (9/23)
Length of Visible Light 13h 09m
Length of Day
12h 06m
Waning Gibbous, 80% of the Moon is Illuminated
Sep 23
Waning Gibbous
Sep 26
Last Quarter
Oct 4
New
Oct 11
First Quarter
Oct 18
Full

Hourly Weather History & Observations

Time (PDT) Temp. Dew Point Humidity Pressure Visibility Wind Dir Wind Speed Gust Speed Precip Events Conditions
12:15 AM 53.6 °F 51.8 °F 94% 29.68 in 10.0 mi South 5.8 mph - N/A   Clear
12:35 AM 53.6 °F 51.8 °F 94% 29.68 in 10.0 mi South 11.5 mph - N/A   Scattered Clouds
12:55 AM 55.4 °F 50.0 °F 82% 29.69 in 10.0 mi SSW 10.4 mph - N/A   Scattered Clouds
1:15 AM 55.4 °F 50.0 °F 82% 29.69 in 10.0 mi SSW 9.2 mph - N/A   Partly Cloudy
1:35 AM 55.4 °F 50.0 °F 82% 29.70 in 10.0 mi SW 9.2 mph - N/A   Clear
1:55 AM 55.4 °F 53.6 °F 94% 29.70 in 10.0 mi SSW 8.1 mph - N/A   Clear
2:15 AM 55.4 °F 51.8 °F 88% 29.70 in 10.0 mi SSW 6.9 mph - N/A   Partly Cloudy
2:35 AM 55.4 °F 51.8 °F 88% 29.71 in 10.0 mi South 5.8 mph - N/A   Partly Cloudy
2:55 AM 55.4 °F 51.8 °F 88% 29.71 in 10.0 mi South 8.1 mph - N/A   Clear
3:15 AM 55.4 °F 51.8 °F 88% 29.71 in 10.0 mi South 8.1 mph - N/A   Clear
3:35 AM 55.4 °F 51.8 °F 88% 29.72 in 10.0 mi South 4.6 mph - N/A   Partly Cloudy
3:55 AM 53.6 °F 51.8 °F 94% 29.72 in 10.0 mi Calm Calm - N/A Rain Light Rain
4:15 AM 53.6 °F 50.0 °F 88% 29.73 in 10.0 mi SSE 3.5 mph - N/A   Scattered Clouds
4:35 AM 53.6 °F 50.0 °F 88% 29.74 in 10.0 mi South 5.8 mph - N/A   Scattered Clouds
4:55 AM 53.6 °F 51.8 °F 94% 29.75 in 4.0 mi South 9.2 mph - N/A Rain Light Rain
5:15 AM 53.6 °F 50.0 °F 88% 29.75 in 8.0 mi South 8.1 mph - N/A Rain Light Rain
5:35 AM 53.6 °F 50.0 °F 88% 29.75 in 5.0 mi SSW 9.2 mph - 0.01 in Rain Light Rain
5:55 AM 53.6 °F 50.0 °F 88% 29.75 in 10.0 mi South 5.8 mph - 0.01 in   Scattered Clouds
6:15 AM 53.6 °F 50.0 °F 88% 29.75 in 10.0 mi South 5.8 mph - N/A   Clear
6:35 AM 53.6 °F 50.0 °F 88% 29.75 in 10.0 mi South 8.1 mph - N/A   Clear
6:55 AM 51.8 °F 50.0 °F 94% 29.76 in 10.0 mi SSW 10.4 mph - N/A   Partly Cloudy
7:15 AM 51.8 °F 50.0 °F 94% 29.76 in 10.0 mi SSW 12.7 mph - N/A   Partly Cloudy
7:35 AM 53.6 °F 51.8 °F 94% 29.77 in 10.0 mi SSW 9.2 mph - N/A   Scattered Clouds
7:55 AM 53.6 °F 51.8 °F 94% 29.79 in 9.0 mi South 10.4 mph - N/A   Mostly Cloudy
8:15 AM 53.6 °F 51.8 °F 94% 29.79 in 6.0 mi South 4.6 mph - N/A Rain Light Rain
8:35 AM 53.6 °F 51.8 °F 94% 29.80 in 10.0 mi SSW 6.9 mph - N/A   Scattered Clouds
8:55 AM 53.6 °F 51.8 °F 94% 29.80 in 10.0 mi South 9.2 mph - N/A   Scattered Clouds
9:15 AM 53.6 °F 51.8 °F 94% 29.80 in 10.0 mi South 9.2 mph - N/A Rain Light Rain
9:35 AM 53.6 °F 51.8 °F 94% 29.82 in 9.0 mi SSW 6.9 mph - N/A Rain Light Rain
9:55 AM 53.6 °F 51.8 °F 94% 29.84 in 2.0 mi SSW 6.9 mph - N/A Rain Rain
10:15 AM 53.6 °F 51.8 °F 94% 29.85 in 2.5 mi SW 8.1 mph - N/A Rain Rain
10:35 AM 53.6 °F 51.8 °F 94% 29.85 in 7.0 mi South 6.9 mph - N/A Rain Light Rain
10:55 AM 53.6 °F 51.8 °F 94% 29.85 in 10.0 mi South 3.5 mph - N/A   Partly Cloudy
11:15 AM 55.4 °F 51.8 °F 88% 29.85 in 10.0 mi South 5.8 mph - N/A   Partly Cloudy
11:35 AM 55.4 °F 51.8 °F 88% 29.85 in 10.0 mi South 8.1 mph - N/A   Clear
11:55 AM 55.4 °F 51.8 °F 88% 29.85 in 10.0 mi South 6.9 mph - N/A   Clear
12:15 PM 57.2 °F 51.8 °F 82% 29.85 in 10.0 mi South 6.9 mph - N/A   Clear
12:35 PM 57.2 °F 51.8 °F 82% 29.86 in 10.0 mi South 8.1 mph - N/A   Clear
12:55 PM 57.2 °F 51.8 °F 82% 29.86 in 10.0 mi South 6.9 mph - N/A   Partly Cloudy
1:15 PM 57.2 °F 50.0 °F 77% 29.87 in 10.0 mi South 6.9 mph - N/A   Clear
1:35 PM 57.2 °F 50.0 °F 77% 29.87 in 10.0 mi South 5.8 mph - N/A   Clear
1:55 PM 57.2 °F 50.0 °F 77% 29.88 in 10.0 mi South 8.1 mph - N/A   Clear
2:15 PM 57.2 °F 50.0 °F 77% 29.88 in 10.0 mi South 5.8 mph - N/A   Clear
2:35 PM 57.2 °F 50.0 °F 77% 29.88 in 10.0 mi South 4.6 mph - N/A   Clear
2:55 PM 57.2 °F 48.2 °F 72% 29.88 in 10.0 mi South 5.8 mph - N/A   Clear
3:15 PM 57.2 °F 48.2 °F 72% 29.88 in 10.0 mi South 6.9 mph - N/A   Clear
3:35 PM 59.0 °F 48.2 °F 67% 29.88 in 10.0 mi South 5.8 mph - N/A   Partly Cloudy
3:55 PM 59.0 °F 48.2 °F 67% 29.89 in 10.0 mi South 8.1 mph - N/A   Partly Cloudy
4:15 PM 59.0 °F 48.2 °F 67% 29.89 in 10.0 mi South 5.8 mph - N/A   Clear
4:35 PM 60.8 °F 48.2 °F 63% 29.89 in 10.0 mi South 6.9 mph - N/A   Scattered Clouds
4:55 PM 59.0 °F 48.2 °F 67% 29.88 in 10.0 mi SSW 8.1 mph - N/A   Partly Cloudy
5:15 PM 59.0 °F 48.2 °F 67% 29.88 in 10.0 mi SSW 10.4 mph - N/A   Clear
5:35 PM 59.0 °F 48.2 °F 67% 29.89 in 10.0 mi South 5.8 mph - N/A   Clear
5:55 PM 59.0 °F 48.2 °F 67% 29.89 in 10.0 mi South 9.2 mph - N/A   Clear
6:15 PM 57.2 °F 48.2 °F 72% 29.89 in 10.0 mi South 6.9 mph - N/A   Clear
6:35 PM 57.2 °F 48.2 °F 72% 29.89 in 10.0 mi SSW 6.9 mph - N/A   Clear
6:55 PM 55.4 °F 48.2 °F 77% 29.90 in 10.0 mi South 5.8 mph - N/A   Clear
7:15 PM 55.4 °F 48.2 °F 77% 29.90 in 10.0 mi South 8.1 mph - N/A   Clear
7:35 PM 55.4 °F 48.2 °F 77% 29.91 in 10.0 mi South 9.2 mph - N/A   Clear
7:55 PM 53.6 °F 48.2 °F 82% 29.91 in 10.0 mi SSW 6.9 mph - N/A   Clear
8:15 PM 53.6 °F 48.2 °F 82% 29.91 in 10.0 mi South 5.8 mph - N/A   Clear
8:35 PM 53.6 °F 48.2 °F 82% 29.92 in 10.0 mi Calm Calm - N/A   Clear
8:55 PM 51.8 °F 46.4 °F 82% 29.92 in 10.0 mi SSW 5.8 mph - N/A   Clear
9:15 PM 51.8 °F 46.4 °F 82% 29.92 in 10.0 mi South 4.6 mph - N/A   Clear
9:35 PM 51.8 °F 46.4 °F 82% 29.92 in 10.0 mi Calm Calm - N/A   Clear
9:55 PM 50.0 °F 46.4 °F 87% 29.93 in 10.0 mi SSW 5.8 mph - N/A   Clear
10:15 PM 50.0 °F 46.4 °F 87% 29.93 in 10.0 mi SSW 4.6 mph - N/A   Partly Cloudy
10:35 PM 50.0 °F 46.4 °F 87% 29.93 in 10.0 mi South 5.8 mph - N/A   Mostly Cloudy
10:55 PM 51.8 °F 46.4 °F 82% 29.93 in 10.0 mi South 4.6 mph - N/A   Scattered Clouds
11:15 PM 50.0 °F 46.4 °F 87% 29.93 in 10.0 mi Calm Calm - N/A   Clear
11:35 PM 50.0 °F 46.4 °F 87% 29.93 in 10.0 mi SSW 4.6 mph - N/A   Clear
11:55 PM 50.0 °F 46.4 °F 87% 29.93 in 10.0 mi Calm Calm - N/A   Clear